Location: Gugi
(45.4667°N, 11.1000°E)
Time: 02:10:22
(UTC+00:00)

Cosmos 1634 Rocket - Pass Details

Date: 17 November 2019
Orbit: 959 x 993 km, 82.9° (Epoch: 14 December)

Event Time Altitude Azimuth Distance (km) Brightness Sun altitude
Rises 18:04:30 0° 352° (N) 3,667 7.1 -24.5°
Reaches altitude 10° 18:07:02 10° 354° (N) 2,712 6.4 -25.0°
Maximum altitude 18:13:14 78° 81° (E) 985 3.8 -26.1°
Drops below altitude 10° 18:19:23 10° 168° (SSE) 2,684 6.2 -27.1°
Sets 18:21:52 0° 170° (S) 3,626 6.9 -27.6°
